Theta_e
326 329 334 333 331 330 328 325 323 321 319 317 315 313 312 312 311 312 313 313 314 316 320 328 329 329 330 330 329 328 331 333 332 330 328 328 329 327 329 328 325 320 313
326 329 333 333 330 329 328 324 321 319 317 314 311 309 308 307 307 307 308 308 309 310 313 316 322 328 329 329 329 329 328 331 332 332 330 327 327 327 326 327 325 323 314
325 327 334 331 329 329 326 322 320 317 314 309 306 304 304 304 304 304 304 304 304 304 305 308 314 321 325 327 328 328 329 329 330 331 331 329 327 326 325 327 327 323 315
325 326 330 330 329 328 324 321 318 314 308 304 304 304 304 303 303 303 302 302 303 303 303 304 304 307 313 315 323 328 328 329 329 330 330 329 326 324 325 325 328 323 315
326 325 324 326 328 326 323 320 315 309 305 304 304 303 303 303 303 303 303 303 302 302 302 302 302 303 304 305 309 322 328 329 329 329 330 329 327 324 326 327 328 322 313
322 322 323 327 327 324 321 316 310 305 304 304 303 303 303 303 303 303 303 303 303 302 302 302 302 302 302 302 303 305 316 327 328 329 329 330 328 326 326 328 328 322 314
319 321 323 326 324 321 317 312 306 304 304 304 303 303 303 303 304 304 304 303 303 302 302 302 302 302 301 302 302 302 303 313 324 328 329 329 329 328 327 328 329 325 314
320 321 323 324 322 318 314 308 305 304 304 304 303 304 304 304 304 304 303 303 303 303 302 302 302 302 301 301 301 301 301 302 311 322 328 329 329 329 328 328 330 328 322
320 320 322 322 319 316 311 306 305 305 304 304 304 305 305 304 304 304 303 302 303 305 305 305 305 305 303 302 301 301 301 301 302 309 322 330 329 329 328 328 329 330 322
320 320 320 319 318 314 309 306 305 305 305 305 305 305 305 304 304 302 305 306 305 304 304 305 305 305 305 305 304 302 301 301 301 301 307 322 328 329 329 328 329 330 325
320 319 319 318 317 313 308 306 306 305 305 306 306 305 304 303 302 305 304 303 303 303 303 303 303 304 304 304 305 304 302 301 301 301 301 306 321 327 329 329 329 328 323
319 319 318 317 316 312 309 307 306 306 306 306 306 305 304 301 305 304 302 303 303 303 303 303 303 303 303 303 304 305 304 303 302 301 301 302 306 325 328 329 328 329 324
318 320 319 317 315 312 310 307 307 307 307 306 306 304 302 304 304 302 302 304 304 305 305 305 305 305 306 305 304 305 305 304 304 302 301 301 303 319 327 329 328 328 328
319 319 319 317 315 313 311 308 308 308 307 306 305 303 302 305 302 302 304 306 306 305 304 304 305 305 307 307 306 305 306 306 305 305 302 301 307 322 325 328 329 328 325
319 318 318 317 316 314 312 309 308 308 307 306 304 302 305 304 302 304 306 306 306 305 306 307 307 307 308 307 308 308 311 309 311 311 306 301 308 322 322 326 328 329 325
319 318 318 317 316 315 313 310 309 309 307 306 303 302 305 302 304 306 307 307 305 307 309 309 310 309 307 309 309 310 311 312 313 314 315 302 307 318 322 324 327 325 321
318 318 317 317 317 315 313 311 310 309 307 305 302 305 303 302 305 307 308 307 307 307 309 309 309 309 309 309 309 311 310 311 312 314 313 305 310 319 324 323 327 320 320
318 317 317 317 317 316 314 311 310 309 306 304 302 305 302 304 306 308 308 308 309 308 309 309 309 309 309 310 310 310 310 312 313 315 315 315 317 321 322 323 322 321 322
316 317 317 318 318 316 314 312 311 308 306 303 303 304 302 304 306 308 309 309 310 310 309 309 309 309 310 310 311 311 312 315 314 315 316 315 320 322 321 324 318 320 322
316 316 317 318 318 317 314 312 311 307 304 302 305 303 302 304 306 308 309 310 311 309 309 309 309 309 311 312 313 312 312 313 315 317 317 313 318 320 321 323 322 321 322
315 315 317 318 318 316 314 312 310 306 303 301 305 303 303 304 307 309 310 311 311 310 310 309 309 310 312 312 313 313 313 314 315 315 316 318 317 322 322 323 322 323 324
313 315 317 318 318 316 313 312 308 305 303 302 305 303 303 305 308 309 310 311 311 310 310 310 310 310 311 311 312 312 313 315 316 317 320 321 323 323 323 320 323 322 321
313 315 317 318 317 314 313 310 307 304 301 304 305 303 302 305 308 309 310 311 311 311 310 310 310 310 311 312 312 313 313 314 315 319 320 321 318 318 320 320 322 320 318
314 316 317 317 315 313 311 308 305 303 301 306 305 303 303 305 307 309 311 311 311 311 311 310 311 311 311 311 313 313 315 315 314 313 319 320 318 318 317 317 319 317 316
315 316 317 315 314 312 309 306 304 302 302 306 304 303 303 306 308 310 310 311 311 312 311 311 311 311 311 311 313 314 315 316 315 315 315 315 318 317 315 314 313 315 314
315 316 315 314 312 310 307 305 303 301 302 306 304 304 304 306 308 309 310 311 311 311 312 311 311 311 311 311 312 314 314 316 316 317 318 318 316 316 316 316 314 315 313
Wind_Speed
10 14 14 12 11 9 6 4 4 4 6 7 8 9 9 10 10 10 11 11 11 11 11 8 6 8 9 8 8 9 8 9 9 9 7 6 7 6 8 7 6 4 6
9 14 14 12 11 9 6 5 4 5 7 9 9 10 9 10 10 11 11 11 11 12 11 14 12 7 8 9 10 9 11 11 11 10 9 8 8 8 9 9 8 5 8
9 11 14 13 11 8 6 4 5 7 9 10 9 7 6 6 7 8 8 9 10 11 12 14 15 15 14 11 10 10 12 12 13 13 12 11 10 10 10 10 11 8 9
8 10 12 11 9 7 5 4 6 8 9 8 6 6 6 6 6 7 7 8 9 10 11 12 14 17 19 19 15 12 11 13 14 14 14 14 12 11 12 12 14 10 10
8 7 9 9 9 7 6 6 7 7 6 5 5 5 6 7 7 7 8 8 9 10 11 12 13 14 17 19 20 18 15 13 15 16 16 15 14 13 14 14 16 13 14
8 6 8 10 9 7 6 6 6 5 5 5 5 6 6 7 8 8 9 10 10 11 12 13 14 15 17 17 19 20 22 19 16 17 17 17 16 14 13 16 18 16 16
8 8 9 10 8 7 5 5 4 3 4 4 5 6 6 7 8 9 10 10 11 13 14 15 15 16 17 18 19 20 21 24 21 17 19 19 19 16 15 17 19 19 20
6 8 9 9 8 6 4 3 3 3 4 4 5 6 7 8 9 10 11 12 13 14 15 15 16 17 18 19 20 21 22 24 24 24 20 22 20 19 17 18 21 24 21
8 7 9 9 8 5 3 2 3 3 4 4 5 6 8 9 11 12 13 14 14 14 15 15 16 17 18 20 21 21 22 23 23 26 24 20 22 21 19 18 21 28 25
9 9 8 9 7 4 3 2 2 3 4 5 6 7 9 11 13 14 13 13 14 13 13 14 15 16 17 18 18 18 20 21 23 24 26 25 20 21 20 18 21 27 31
11 10 10 9 7 5 4 2 2 3 4 5 7 9 11 14 14 14 14 13 13 14 14 14 15 16 16 16 16 16 17 18 21 22 24 26 25 20 19 18 19 19 22
12 11 10 9 7 5 4 3 2 3 4 6 8 11 13 14 13 13 12 13 14 14 16 16 16 16 16 16 16 16 16 16 17 19 21 23 27 20 18 17 16 26 25
10 11 10 9 8 6 5 3 3 3 5 7 9 12 14 13 13 12 12 13 15 16 17 16 14 14 15 15 14 14 14 14 14 15 18 21 21 22 19 15 16 19 13
12 11 11 10 9 8 6 5 4 3 5 7 9 12 13 12 11 11 13 15 17 18 17 15 13 13 13 13 13 11 11 11 10 10 12 17 18 20 19 18 21 26 33
14 13 12 11 9 8 7 5 4 4 6 8 10 12 11 11 10 12 14 16 17 16 15 14 13 13 13 12 11 10 8 4 3 6 7 12 18 19 21 19 19 27 37
15 14 13 11 10 8 7 6 5 5 6 8 11 10 10 9 10 12 15 16 15 13 17 18 20 18 14 13 10 6 6 2 1 4 6 8 17 21 21 20 15 29 22
15 15 14 12 11 9 8 7 5 5 6 8 10 9 9 8 9 12 14 15 14 15 15 16 19 21 13 12 7 8 5 3 3 3 3 10 15 20 16 15 17 34 26
18 17 16 14 12 11 9 8 6 5 5 8 8 8 7 7 8 11 13 14 16 14 14 16 19 20 19 17 12 9 6 5 1 4 5 11 12 15 13 17 40 27 30
19 19 17 16 14 12 10 8 6 5 5 7 6 6 5 6 8 10 12 13 15 16 14 15 15 17 15 17 14 11 10 8 5 4 5 9 11 11 15 26 27 29 33
21 19 17 16 15 13 10 8 6 5 5 6 5 5 4 5 6 9 10 11 15 15 11 11 14 14 14 13 14 16 14 12 10 11 11 8 10 12 16 27 32 29 36
22 21 20 18 17 13 10 8 6 5 5 5 3 3 3 4 5 8 9 11 14 14 10 12 11 12 13 13 13 16 18 15 13 13 13 13 9 11 23 28 25 34 40
22 22 20 18 15 13 12 9 6 4 5 3 2 2 2 3 3 5 8 12 13 11 8 10 10 8 11 13 10 9 10 19 19 21 17 20 21 21 25 22 24 38 47
23 22 21 19 16 14 12 9 6 4 4 3 1 1 1 1 1 4 8 11 11 9 8 9 9 8 11 14 12 8 7 8 19 26 26 25 26 20 20 29 35 50 42
23 23 22 20 17 14 12 9 6 4 4 3 2 1 0 0 0 4 7 8 9 8 6 8 10 11 9 10 10 9 16 19 14 20 30 32 31 34 26 30 42 44 36
24 24 23 20 18 15 12 9 6 5 4 3 3 2 2 1 1 2 6 7 8 6 5 6 8 9 8 11 11 13 13 13 21 26 26 35 36 41 37 32 30 27 31
25 24 23 20 18 15 12 9 6 4 4 4 4 3 3 2 2 1 5 7 7 5 4 6 7 7 7 8 11 11 11 20 23 23 34 35 42 40 34 30 33 30 31
Wind_Direction
174 177 176 190 190 202 220 244 254 273 288 291 293 289 287 282 278 273 271 268 262 260 256 258 281 290 278 271 258 252 239 237 225 227 228 212 210 219 201 191 188 159 129
173 177 175 192 190 204 222 240 259 277 290 294 299 298 291 289 284 280 277 277 275 269 261 254 251 266 281 275 262 252 248 241 236 230 231 227 227 222 219 200 196 179 157
173 180 178 198 194 202 221 242 270 290 301 307 312 308 300 295 293 293 294 292 286 280 270 264 257 253 255 264 263 257 251 246 240 240 237 234 232 226 217 209 198 186 172
168 183 183 195 189 201 220 250 274 294 307 317 316 313 316 311 315 315 314 308 302 294 285 276 269 262 260 260 259 254 252 248 242 237 238 237 231 229 219 215 202 191 177
166 179 185 179 182 197 216 246 277 299 312 314 319 324 328 331 327 322 317 309 303 298 292 284 277 272 266 264 255 252 247 244 242 237 233 237 235 231 226 216 206 191 176
164 173 173 171 185 201 223 258 292 313 319 327 331 332 334 326 321 322 317 311 304 296 289 286 281 275 271 267 265 256 248 246 241 239 236 233 234 233 229 218 205 194 180
164 170 170 174 186 204 239 282 305 315 330 328 332 336 329 325 321 316 309 304 299 294 291 287 286 283 278 274 269 262 252 246 246 241 237 234 233 230 229 219 209 194 179
166 168 171 178 191 210 251 288 307 327 325 332 338 332 327 324 321 316 311 307 303 296 296 292 286 282 277 272 267 260 255 250 240 238 236 235 232 230 227 221 215 205 206
167 172 179 187 199 215 245 276 303 327 330 333 332 329 326 324 322 318 314 310 308 309 305 301 294 287 283 279 274 270 264 258 251 245 236 233 233 231 227 221 220 214 199
176 180 190 198 206 223 238 264 308 312 322 324 333 328 324 326 326 322 323 324 318 314 311 308 304 299 295 292 287 278 270 259 251 245 241 235 232 230 228 224 224 214 191
190 190 194 203 209 218 231 256 289 315 319 330 333 329 331 332 333 334 335 334 330 330 329 325 321 314 307 298 290 281 272 264 255 247 240 234 231 229 226 227 229 221 186
198 197 197 204 208 216 225 236 274 308 323 330 334 333 336 337 341 343 343 336 339 338 338 333 326 321 316 307 302 295 289 278 267 255 244 233 230 227 220 230 226 217 201
196 201 202 205 209 211 220 232 262 305 322 329 336 337 339 344 345 344 345 345 344 342 336 331 328 325 324 319 311 295 289 284 272 259 245 234 228 219 214 219 213 211 174
206 203 205 207 206 211 218 228 252 299 315 330 336 340 343 348 350 349 352 351 348 346 349 344 340 335 330 325 322 314 303 296 285 267 247 231 218 207 211 215 214 198 173
210 210 210 212 209 209 218 229 253 297 319 332 341 341 346 351 355 355 359 357 354 356 2 359 348 341 340 342 337 334 343 337 335 306 262 219 205 197 210 219 221 212 165
212 214 213 213 212 213 218 231 257 299 322 335 340 342 348 355 360 3 6 7 2 4 10 4 4 1 2 358 356 3 357 18 346 296 290 201 189 188 209 221 221 153 144
217 214 212 212 213 213 217 230 257 297 320 333 339 342 349 360 2 8 10 11 7 12 17 10 8 8 5 2 34 13 354 329 293 343 91 156 178 191 207 204 193 134 140
215 213 207 205 205 210 218 228 250 284 315 333 339 342 350 2 7 11 11 10 15 13 21 10 15 19 33 32 35 20 352 323 337 34 113 156 174 191 185 182 150 149 152
211 209 205 202 200 205 216 228 247 284 319 331 335 342 354 2 9 12 12 7 8 11 32 22 33 36 36 38 35 35 32 42 74 67 94 153 164 167 166 158 137 156 155
204 203 203 201 201 204 212 226 247 277 307 320 332 341 355 1 12 15 9 8 8 16 49 33 40 45 39 39 59 47 59 58 58 70 73 134 142 152 163 153 153 158 156
198 198 198 201 203 207 211 217 234 263 295 309 331 339 350 4 23 22 16 9 22 10 38 36 59 51 56 56 66 64 65 66 73 79 91 92 131 144 163 157 158 152 145
196 193 196 198 203 205 208 213 225 255 284 278 301 317 344 7 42 28 11 4 18 19 40 39 39 55 52 49 44 73 71 78 83 91 98 98 121 134 155 144 145 150 135
189 191 193 194 200 205 209 210 220 246 265 244 249 285 335 8 37 21 12 11 23 26 32 47 36 49 52 58 76 48 79 86 79 99 96 109 102 91 115 134 153 136 129
182 184 186 190 197 203 207 208 219 240 250 219 205 227 221 4 101 7 10 11 14 20 23 53 59 55 60 67 74 71 99 111 99 85 109 109 108 101 95 143 129 123 125
179 181 184 191 196 198 201 208 219 235 229 208 191 180 165 164 160 10 3 5 7 7 33 75 56 57 67 78 85 113 106 119 125 114 101 96 117 122 122 111 103 115 122
179 183 187 192 196 194 196 205 218 230 220 200 189 177 170 174 180 359 1 360 21 11 51 77 58 54 92 85 107 118 125 124 127 132 114 116 115 116 127 139 141 142 132